Weather History for Fort Leonard Wood, MO

Change the Weather History Date:

Tuesday, July 9, 2013

  Actual Average Record
Temperature  
Mean Temperature 83 °F -  
Max Temperature 93 °F 84 °F 96 °F (2002)
Min Temperature 73 °F 68 °F 60 °F (1996)
Cooling Degree Days 18    
Growing Degree Days 33 (Base 50)    
Moisture  
Dew Point 73 °F    
Average Humidity 70    
Maximum Humidity 90    
Minimum Humidity 50    
Precipitation  
Precipitation 0.00 in - - ()
Sea Level Pressure  
Sea Level Pressure 30.02 in    
Wind  
Wind Speed 5 mph (South)    
Max Wind Speed 8 mph    
Max Gust Speed -    
Visibility 10 miles    
Events      
Averages and records for this station are not official NWS values.
T = Trace of Precipitation, MM = Missing Value Source: NWS Daily Summary

Daily Weather History Graph

Daily Weather History Graph

Search for Another Location

Airport:

Trip Planner

Search our weather history database for the weather conditions in past years. The results will help you decide how hot, cold, wet, or windy it might be!

Date:

Astronomy

Jul. 09, 2013 Rise Set
Actual Time 5:54 AM CDT 8:32 PM CDT
Civil Twilight 5:24 AM CDT 9:03 PM CDT
Nautical Twilight 4:45 AM CDT 9:41 PM CDT
Astronomical Twilight 4:02 AM CDT 10:24 PM CDT
Moon 7:17 AM CDT (7/9) 9:13 PM CDT (7/9)
Length of Visible Light 15h 39m
Length of Day
14h 37m
New Moon, 2% of the Moon is Illuminated
Jul 9
New Moon
Jul 15
First Quarter
Jul 22
Full
Jul 29
Last Quarter
Aug 6
New

Hourly Weather History & Observations

Time (CDT) Temp. Heat Index Dew Point Humidity Pressure Visibility Wind Dir Wind Speed Gust Speed Precip Events Conditions
12:58 AM 74.3 °F - 69.4 °F 85% 30.04 in 10.0 mi SSE 5.8 mph - N/A   Clear
1:58 AM 73.2 °F - 69.8 °F 89% 30.04 in 10.0 mi SSE 4.6 mph - N/A   Clear
2:58 AM 74.7 °F - 69.8 °F 85% 30.03 in 10.0 mi SSE 4.6 mph - N/A   Clear
3:58 AM 74.8 °F - 70.2 °F 85% 30.04 in 10.0 mi SSE 4.6 mph - N/A   Clear
4:58 AM 74.5 °F - 70.3 °F 87% 30.04 in 10.0 mi South 4.6 mph - N/A   Clear
5:58 AM 73.0 °F - 70.0 °F 90% 30.04 in 10.0 mi South 4.6 mph - N/A   Clear
6:58 AM 75.4 °F - 70.3 °F 84% 30.06 in 10.0 mi Variable 4.6 mph - N/A   Clear
7:58 AM 78.4 °F - 71.8 °F 80% 30.06 in 10.0 mi Variable 4.6 mph - N/A   Clear
8:58 AM 81.7 °F 86.9 °F 73.2 °F 75% 30.07 in 10.0 mi WSW 4.6 mph - N/A   Clear
9:58 AM 84.7 °F 92.1 °F 74.1 °F 70% 30.06 in 10.0 mi Variable 4.6 mph - N/A   Clear
10:58 AM 87.4 °F 96.7 °F 74.8 °F 66% 30.06 in 10.0 mi Variable 5.8 mph - N/A   Partly Cloudy
11:58 AM 89.2 °F 97.9 °F 73.6 °F 60% 30.05 in 10.0 mi SSW 8.1 mph - N/A   Partly Cloudy
12:58 PM 91.6 °F 100.5 °F 73.2 °F 55% 30.03 in 10.0 mi SSW 8.1 mph - N/A   Mostly Cloudy
1:26 PM 91.4 °F 100.1 °F 73.4 °F 55% 30.06 in 10.0 mi SSW 8.1 mph - N/A   Light Drizzle
1:28 PM 91.4 °F 100.1 °F 73.4 °F 55% 30.06 in 10.0 mi SSW 8.1 mph - N/A   Light Drizzle
1:35 PM 91.4 °F 100.1 °F 73.4 °F 55% 30.06 in 10.0 mi North - - N/A   Scattered Clouds
1:58 PM 91.4 °F 99.5 °F 72.7 °F 54% 30.03 in - Variable 6.9 mph - N/A   Clear
2:01 PM 91.4 °F 100.1 °F 73.4 °F 55% 30.03 in 10.0 mi Variable 6.9 mph - N/A   Partly Cloudy
2:58 PM 90.3 °F 98.2 °F 72.7 °F 56% 30.01 in 10.0 mi Variable 2.3 mph - N/A   Mostly Cloudy
3:58 PM 93.0 °F 100.7 °F 72.1 °F 50% 29.99 in 10.0 mi South 8.1 mph - N/A   Scattered Clouds
4:58 PM 92.8 °F 101.5 °F 72.9 °F 52% 29.98 in 10.0 mi Variable 4.6 mph - N/A   Mostly Cloudy
5:58 PM 90.9 °F 101.8 °F 75.4 °F 60% 29.96 in 10.0 mi Variable 3.5 mph - N/A   Mostly Cloudy
6:58 PM 88.0 °F 101.3 °F 77.9 °F 72% 29.95 in 10.0 mi WSW 1.2 mph - N/A   Mostly Cloudy
7:58 PM 88.5 °F 99.4 °F 75.9 °F 66% 29.95 in 10.0 mi South 2.3 mph - N/A   Mostly Cloudy
8:58 PM 82.2 °F 90.1 °F 76.6 °F 83% 29.94 in 10.0 mi SSE 4.6 mph - N/A   Clear
9:58 PM 80.4 °F 85.5 °F 74.5 °F 82% 29.95 in 10.0 mi South 3.5 mph - N/A   Clear
10:58 PM 80.6 °F 84.9 °F 72.3 °F 76% 29.95 in 10.0 mi South 4.6 mph - N/A   Clear
11:58 PM 79.5 °F - 71.8 °F 77% 29.96 in 10.0 mi SSW 4.6 mph - N/A   Mostly Cloudy